This is the latest recevied weather packets stored in our database for station/object K5BOU. If no packets are shown the sender has not sent any weather packets the latest 10 day(s).
| Time | Temp. | Humidity | Pressure | Rain* | Wind** | Luminosity | Snow |
|---|---|---|---|---|---|---|---|
| 1788306295 | 31.67° C | 72% | 1010.9 hPa | 0 mm | - | 51 W/m² | - |
| 1788305990 | 31.67° C | 70% | 1010.8 hPa | 0 mm | - | 53 W/m² | - |
| 1788305685 | 31.67° C | 70% | 1010.6 hPa | 0 mm | - | 57 W/m² | - |
| 1788305381 | 31.67° C | 69% | 1010.8 hPa | 0 mm | - | 57 W/m² | - |
| 1788305076 | 31.67° C | 69% | 1011 hPa | 0 mm | - | 59 W/m² | - |
| 1788304771 | 32.22° C | 67% | 1010.8 hPa | 0 mm | - | 61 W/m² | - |
| 1788304468 | 32.22° C | 67% | 1010.8 hPa | 0 mm | - | 62 W/m² | - |
| 1788304164 | 32.22° C | 66% | 1011.2 hPa | 0 mm | - | 66 W/m² | - |
| 1788303863 | 32.22° C | 66% | 1010.9 hPa | 0 mm | - | 71 W/m² | - |
| 1788303559 | 32.22° C | 65% | 1011 hPa | 0 mm | - | 73 W/m² | - |
| 1788303259 | 32.22° C | 65% | 1010.8 hPa | 0 mm | - | 76 W/m² | - |
| 1788302953 | 32.22° C | 64% | 1011 hPa | 0 mm | - | 79 W/m² | - |
| 1788302650 | 32.22° C | 63% | 1011 hPa | 0 mm | - | 82 W/m² | - |
| 1788302346 | 32.22° C | 63% | 1011.1 hPa | 0 mm | - | 86 W/m² | - |
| 1788302041 | 32.22° C | 62% | 1010.9 hPa | 0 mm | - | 89 W/m² | - |
| 1788301736 | 32.22° C | 63% | 1011 hPa | 0 mm | - | 91 W/m² | - |
| 1788301433 | 32.22° C | 65% | 1011 hPa | 0 mm | - | 95 W/m² | - |
| 1788301128 | 32.22° C | 65% | 1010.9 hPa | 0 mm | - | 98 W/m² | - |
| 1788300824 | 32.22° C | 66% | 1011.2 hPa | 0 mm | - | 102 W/m² | - |
| 1788300524 | 32.22° C | 65% | 1011 hPa | 0 mm | - | 105 W/m² | - |
| 1788300223 | 32.22° C | 65% | 1011.1 hPa | 0 mm | - | 108 W/m² | - |
| 1788299922 | 32.22° C | 64% | 1011 hPa | 0 mm | - | 110 W/m² | - |
| 1788299621 | 32.22° C | 66% | 1011.2 hPa | 0 mm | - | 110 W/m² | - |
| 1788299320 | 32.22° C | 65% | 1011.5 hPa | 0 mm | - | 111 W/m² | - |
| 1788299019 | 32.78° C | 64% | 1011.4 hPa | 0 mm | - | 115 W/m² | - |
* Rain latest hour (hover to see other rain measurements)
** Current wind speed in m/s (hover to see current wind gust speed)